When you browse on this site, cookies collect data to enhance your experience and personalize the content and advertising you see.
Visit our Privacy Policy to learn more. By continuing to use the site, you agree to this use of cookies and data.
  • In Romania
  • List of Countries
  • For 7 days
  • Water Temperature
  • Satellite Maps
  • Weather Map
  • Weather Widgets
  • user-avatar
    Login

    Hourly Weather Spiridonovka

    Today, 22 May, Wednesday

    Time Temperature Precipitation Wind Pressure Humidity
    00:00 +9°C° 0 mm 2 mps 761 mmHg 65%
    01:00 +8°C° 0 mm 2 mps 760 mmHg 66%
    02:00 +8°C° 0 mm 2 mps 760 mmHg 67%
    03:00 +8°C° 0 mm 2 mps 760 mmHg 67%
    04:00 +9°C° 0 mm 2 mps 760 mmHg 67%
    05:00 +10°C° 0 mm 2 mps 760 mmHg 67%
    06:00 +12°C° 0 mm 2 mps 760 mmHg 66%
    07:00 +14°C° 0 mm 2 mps 759 mmHg 64%
    08:00 +15°C° 0 mm 2 mps 759 mmHg 61%
    09:00 +17°C° 0 mm 2 mps 759 mmHg 58%
    10:00 +16°C° 0.3 mm 1 mps 759 mmHg 62%
    11:00 +15°C° 0.3 mm 1 mps 759 mmHg 67%
    12:00 +15°C° 0.3 mm 1 mps 758 mmHg 72%
    13:00 +15°C° 0.2 mm 2 mps 758 mmHg 72%
    14:00 +16°C° 0.2 mm 2 mps 758 mmHg 72%
    15:00 +16°C° 0.2 mm 2 mps 757 mmHg 72%
    16:00 +16°C° 0.3 mm 2 mps 757 mmHg 75%
    17:00 +17°C° 0.3 mm 2 mps 757 mmHg 77%
    18:00 +17°C° 0.3 mm 3 mps 756 mmHg 80%
    19:00 +16°C° 0.3 mm 3 mps 756 mmHg 83%
    20:00 +16°C° 0.3 mm 3 mps 756 mmHg 85%
    21:00 +14°C° 0.3 mm 3 mps 756 mmHg 88%
    22:00 +14°C° 0.2 mm 3 mps 756 mmHg 89%
    23:00 +14°C° 0.2 mm 3 mps 755 mmHg 91%

    Tomorrow, 23 May, Thursday

    Time Temperature Precipitation Wind Pressure Humidity
    00:00 +13°C° 0.2 mm 3 mps 755 mmHg 92%
    01:00 +13°C° 0 mm 3 mps 755 mmHg 92%
    02:00 +13°C° 0 mm 3 mps 755 mmHg 92%
    03:00 +13°C° 0 mm 3 mps 755 mmHg 91%
    04:00 +14°C° 0 mm 4 mps 754 mmHg 88%
    05:00 +15°C° 0 mm 4 mps 754 mmHg 85%
    06:00 +15°C° 0 mm 5 mps 754 mmHg 81%
    07:00 +17°C° 0 mm 5 mps 754 mmHg 73%
    08:00 +20°C° 0 mm 6 mps 754 mmHg 64%
    09:00 +21°C° 0 mm 6 mps 754 mmHg 55%
    10:00 +22°C° 0 mm 7 mps 753 mmHg 51%
    11:00 +23°C° 0 mm 7 mps 753 mmHg 48%
    12:00 +23°C° 0 mm 7 mps 753 mmHg 44%
    13:00 +23°C° 0 mm 7 mps 752 mmHg 44%
    14:00 +23°C° 0 mm 7 mps 752 mmHg 44%
    15:00 +23°C° 0 mm 7 mps 752 mmHg 44%
    16:00 +22°C° 0 mm 6 mps 751 mmHg 47%
    17:00 +21°C° 0 mm 6 mps 751 mmHg 51%
    18:00 +20°C° 0 mm 5 mps 750 mmHg 54%
    19:00 +19°C° 0 mm 5 mps 750 mmHg 56%
    20:00 +17°C° 0 mm 4 mps 750 mmHg 58%
    21:00 +15°C° 0 mm 4 mps 750 mmHg 60%
    22:00 +15°C° 0 mm 4 mps 750 mmHg 62%
    23:00 +14°C° 0 mm 4 mps 750 mmHg 63%

    Day after tomorrow, 24 May, Friday

    Time Temperature Precipitation Wind Pressure Humidity
    00:00 +14°C° 0 mm 5 mps 749 mmHg 65%
    01:00 +14°C° 0 mm 5 mps 749 mmHg 67%
    02:00 +14°C° 0 mm 4 mps 749 mmHg 68%
    03:00 +14°C° 0 mm 4 mps 749 mmHg 70%
    04:00 +14°C° 0.4 mm 5 mps 749 mmHg 73%
    05:00 +14°C° 0.4 mm 5 mps 749 mmHg 77%
    06:00 +14°C° 0.4 mm 5 mps 749 mmHg 80%
    07:00 +14°C° 0.4 mm 5 mps 749 mmHg 83%
    08:00 +14°C° 0.4 mm 5 mps 750 mmHg 87%
    09:00 +14°C° 0.4 mm 4 mps 750 mmHg 90%
    10:00 +15°C° 0.1 mm 5 mps 751 mmHg 83%
    11:00 +16°C° 0.1 mm 5 mps 751 mmHg 75%
    12:00 +17°C° 0.1 mm 5 mps 751 mmHg 68%
    13:00 +17°C° 0 mm 5 mps 752 mmHg 65%
    14:00 +17°C° 0 mm 5 mps 752 mmHg 62%
    15:00 +17°C° 0 mm 5 mps 753 mmHg 59%
    16:00 +16°C° 0 mm 5 mps 753 mmHg 60%
    17:00 +15°C° 0 mm 4 mps 754 mmHg 62%
    18:00 +15°C° 0 mm 4 mps 754 mmHg 63%
    19:00 +13°C° 0 mm 4 mps 755 mmHg 65%
    20:00 +11°C° 0 mm 3 mps 756 mmHg 68%
    21:00 +10°C° 0 mm 3 mps 757 mmHg 70%
    22:00 +9°C° 0 mm 3 mps 757 mmHg 71%
    23:00 +8°C° 0 mm 3 mps 757 mmHg 72%

    25 May, Saturday

    Time Temperature Precipitation Wind Pressure Humidity
    00:00 +8°C° 0 mm 3 mps 758 mmHg 72%
    01:00 +7°C° 0 mm 3 mps 758 mmHg 72%
    02:00 +7°C° 0 mm 2 mps 759 mmHg 71%
    03:00 +6°C° 0 mm 2 mps 759 mmHg 71%
    04:00 +7°C° 0 mm 2 mps 759 mmHg 68%
    05:00 +8°C° 0 mm 3 mps 760 mmHg 65%
    06:00 +9°C° 0 mm 3 mps 760 mmHg 63%
    07:00 +10°C° 0 mm 3 mps 760 mmHg 57%
    08:00 +12°C° 0 mm 3 mps 761 mmHg 52%
    09:00 +13°C° 0 mm 3 mps 761 mmHg 46%
    10:00 +14°C° 0 mm 3 mps 761 mmHg 45%
    11:00 +16°C° 0 mm 3 mps 761 mmHg 43%
    12:00 +17°C° 0 mm 2 mps 760 mmHg 41%
    13:00 +18°C° 0 mm 3 mps 760 mmHg 40%
    14:00 +18°C° 0 mm 3 mps 760 mmHg 40%
    15:00 +19°C° 0 mm 3 mps 760 mmHg 40%
    16:00 +18°C° 0 mm 3 mps 759 mmHg 45%
    17:00 +18°C° 0 mm 3 mps 759 mmHg 50%
    18:00 +17°C° 0 mm 3 mps 759 mmHg 55%
    19:00 +14°C° 0 mm 3 mps 759 mmHg 57%
    20:00 +13°C° 0 mm 4 mps 759 mmHg 60%
    21:00 +11°C° 0 mm 4 mps 759 mmHg 62%
    22:00 +11°C° 0 mm 4 mps 759 mmHg 61%
    23:00 +11°C° 0 mm 4 mps 759 mmHg 59%

    26 May, Sunday

    Time Temperature Precipitation Wind Pressure Humidity
    00:00 +10°C° 0 mm 4 mps 759 mmHg 58%
    01:00 +9°C° 0.1 mm 5 mps 759 mmHg 58%
    02:00 +9°C° 0.1 mm 5 mps 759 mmHg 59%
    03:00 +9°C° 0.1 mm 5 mps 758 mmHg 60%
    04:00 +10°C° 0 mm 5 mps 758 mmHg 60%
    05:00 +10°C° 0 mm 5 mps 758 mmHg 60%
    06:00 +10°C° 0 mm 6 mps 758 mmHg 60%
    07:00 +13°C° 0 mm 6 mps 757 mmHg 60%
    08:00 +14°C° 0 mm 6 mps 757 mmHg 60%
    09:00 +15°C° 0 mm 6 mps 756 mmHg 61%
    10:00 +17°C° 0 mm 7 mps 756 mmHg 58%
    11:00 +20°C° 0 mm 7 mps 755 mmHg 55%
    12:00 +22°C° 0 mm 8 mps 755 mmHg 52%
    13:00 +22°C° 0.1 mm 7 mps 755 mmHg 57%
    14:00 +21°C° 0.1 mm 6 mps 754 mmHg 63%
    15:00 +21°C° 0.1 mm 6 mps 754 mmHg 68%
    16:00 +20°C° 0.1 mm 6 mps 753 mmHg 72%
    17:00 +19°C° 0.1 mm 6 mps 753 mmHg 75%
    18:00 +19°C° 0.1 mm 5 mps 753 mmHg 79%
    19:00 +17°C° 0.3 mm 5 mps 753 mmHg 81%
    20:00 +17°C° 0.3 mm 5 mps 752 mmHg 83%
    21:00 +16°C° 0.3 mm 5 mps 752 mmHg 85%
    22:00 +16°C° 0.6 mm 5 mps 752 mmHg 86%
    23:00 +16°C° 0.6 mm 5 mps 752 mmHg 86%

    27 May, Monday

    Time Temperature Precipitation Wind Pressure Humidity
    00:00 +16°C° 0.6 mm 5 mps 751 mmHg 87%
    01:00 +15°C° 0.1 mm 5 mps 751 mmHg 89%
    02:00 +15°C° 0.1 mm 5 mps 751 mmHg 91%
    03:00 +15°C° 0.1 mm 4 mps 751 mmHg 93%
    04:00 +15°C° 0.3 mm 4 mps 752 mmHg 92%
    05:00 +15°C° 0.3 mm 4 mps 752 mmHg 92%
    06:00 +17°C° 0.3 mm 4 mps 752 mmHg 91%
    07:00 +19°C° 0.1 mm 5 mps 752 mmHg 84%
    08:00 +21°C° 0.1 mm 6 mps 752 mmHg 76%
    09:00 +23°C° 0.1 mm 7 mps 752 mmHg 68%
    10:00 +23°C° 0.4 mm 7 mps 752 mmHg 65%
    11:00 +24°C° 0.4 mm 7 mps 752 mmHg 62%
    12:00 +26°C° 0.4 mm 7 mps 752 mmHg 59%
    13:00 +26°C° 1.1 mm 7 mps 752 mmHg 62%
    14:00 +24°C° 1.1 mm 7 mps 752 mmHg 64%
    15:00 +24°C° 1.1 mm 6 mps 751 mmHg 67%
    16:00 +23°C° 0.4 mm 5 mps 752 mmHg 69%
    17:00 +23°C° 0.4 mm 4 mps 752 mmHg 71%
    18:00 +24°C° 0.4 mm 3 mps 752 mmHg 73%
    19:00 +21°C° 0 mm 4 mps 752 mmHg 74%
    20:00 +20°C° 0 mm 4 mps 753 mmHg 76%
    21:00 +18°C° 0 mm 4 mps 753 mmHg 77%
    22:00 +18°C° 0 mm 4 mps 753 mmHg 79%
    23:00 +16°C° 0 mm 5 mps 753 mmHg 82%
    Show more